Location: Alvediston
(51.0078°N, 2.0364°W)
Time: 09:24:03
(UTC+00:00)

Cosmos 1814 Rocket - Pass Details

Date: 27 February 2020
Orbit: 744 x 788 km, 74.1° (Epoch: 03 April)

Event Time Altitude Azimuth Distance (km) Brightness Sun altitude
Rises 20:36:05 0° 215° (SW) 3,175 7.4 -27.3°
Reaches altitude 10° 20:38:28 10° 219° (SW) 2,257 6.6 -27.6°
Maximum altitude 20:43:30 58° 299° (WNW) 871 4.4 -28.4°
Drops below altitude 10° 20:48:36 10° 19° (NNE) 2,285 6.5 -29.1°
Sets 20:51:02 0° 23° (NNE) 3,219 7.3 -29.4°
